Home   Weather   Amsterdam Island   Past weeks

Flag for French Southern Territories Past Weather in Amsterdam Island, French Southern Territories — Yesterday and Last 2 Weeks

Now
55 °F

Cool.


Feels Like: 51 °F
Forecast: 55 / 57 °F
Wind: 14 mph from West

Location: Martin De Vivies Ile Amsterdam

Current Time: Sep 29, 2016 at 11:51:38 PM

Latest Report: Sep 29, 2016 at 11:00 PM


Visibility: N/A

Pressure: 30.21 "Hg

Humidity: 88%

Dew Point: 51 °F

Location of Amsterdam IslandLocation

Past Weather in Amsterdam Island — Graph

°F

Amsterdam Island Temperature Yesterday

Maximum temperature yesterday: 59 °F (at 12:00 PM)
Minimum temperature yesterday: 51 °F (at 12:00 AM)
Average temperature yesterday: 54 °F

High & Low Weather Summary for the Past Weeks

 TemperatureHumidityPressure
High60 °F (Sep 25, 2:00 PM)96% (Sep 24, 3:00 AM)30.52 "Hg (Sep 24, 3:00 AM)
Low44 °F (Sep 19, 3:00 AM)53% (Sep 27, 2:00 PM)29.68 "Hg (Sep 27, 12:00 AM)
Average53 °F80%30.21 "Hg
* Reported Sep 14 10:00 PM — Sep 29 10:00 PM, Amsterdam Island, Weather by CustomWeather, © 2016

Note: Actual official high and low records may vary slightly from our data, if they occured in-between our weather recording intervals... More about our weather records

Advertising

Amsterdam Island Weather History for the Previous 24 Hours

Scroll right to see more
 ConditionsComfort  
Time TempWeatherWind HumidityBarometerVisibility
10:00 PM
Thu, Sep 29
55 °FCool.12 mph87%30.23 "HgN/A
9:00 PM55 °FCool.14 mph86%30.24 "HgN/A
8:00 PM55 °FCool.20 mph85%30.24 "HgN/A
7:00 PM55 °FCool.18 mph86%30.23 "HgN/A
6:00 PM55 °FCool.23 mph85%30.22 "HgN/A
5:00 PM57 °FCool.24 mph80%30.22 "HgN/A
4:00 PM57 °FCool.23 mph79%30.22 "HgN/A
3:00 PM58 °FCool.26 mph78%30.22 "HgN/A
1:00 PM59 °FCool.28 mph76%30.23 "HgN/A
12:00 PM60 °FCool.29 mph73%30.24 "HgN/A
11:00 AM60 °FCool.24 mph74%30.24 "HgN/A
10:00 AM59 °FCool.28 mph76%30.24 "HgN/A
9:00 AM54 °FCool.31 mph85%30.26 "HgN/A
8:00 AM57 °FCool.29 mph78%30.25 "HgN/A
5:00 AM53 °FCool.32 mph86%30.22 "HgN/A
3:00 AM54 °FCool.28 mph84%30.22 "HgN/A
2:00 AM54 °FCool.30 mph85%30.22 "HgN/A
1:00 AM55 °FCool.26 mph77%30.25 "HgN/A
12:00 AM54 °FCool.26 mph77%30.25 "HgN/A
11:00 PM
Wed, Sep 28
54 °FCool.30 mph82%30.26 "HgN/A
Weather by CustomWeather, © 2016

See weather overviewHow to use our weather pages